Location: ActonStarParty
(42.4766°N, 71.4538°W)
Time: 07:14:18
(UTC-05:00)

ISS - Visible Passes

Search period start: 19 December 2014 00:00
Search period end: 29 December 2014 00:00
Orbit: 404 x 415 km, 51.6° (Epoch: 19 December)

Date Brightness Start Highest point End Pass type
(mag) Time Alt. Az. Time Alt. Az. Time Alt. Az.
19 Dec -1.3 18:00:40 10° NW 18:02:21 18° N 18:02:21 18° N visible
20 Dec -1.4 17:09:53 10° NW 17:12:10 17° N 17:13:44 13° NE visible
20 Dec -0.2 18:46:17 10° NW 18:46:30 11° NW 18:46:30 11° NW visible
21 Dec -1.9 17:55:35 10° NW 17:57:54 26° N 17:57:54 26° N visible
22 Dec -1.8 17:04:49 10° NW 17:07:26 21° NNE 17:09:22 14° ENE visible
22 Dec -0.8 18:41:06 10° NW 18:42:08 19° NW 18:42:08 19° NW visible
23 Dec -3.1 17:50:14 10° NW 17:53:26 49° NNE 17:53:41 47° NE visible
24 Dec -2.4 16:59:21 10° NW 17:02:22 32° NNE 17:05:22 10° E visible
24 Dec -1.5 18:35:53 10° WNW 18:38:09 32° WSW 18:38:09 32° WSW visible
25 Dec -3.2 17:44:45 10° WNW 17:48:02 73° SW 17:50:05 21° SE visible
26 Dec -3.3 16:53:41 10° NW 16:56:57 63° NNE 17:00:12 10° ESE visible
26 Dec -0.4 18:31:04 10° W 18:33:11 16° SW 18:35:11 10° S visible
27 Dec -1.2 17:39:20 10° WNW 17:42:13 29° SW 17:45:06 10° SSE visible
28 Dec -2.4 16:47:56 10° WNW 16:51:09 54° SW 16:54:20 10° SE visible
